Yatton Keynell, United Kingdom

6:55 PM GMT on March 18, 2019 (GMT +0000)
Yatton Keynell

Weather History for 03740 - June, 2007

Change the Weather History Date:

Thursday, June 28, 2007

  Actual Average Record
Temperature  
Mean Temperature 54 °F -  
Max Temperature 63 °F 69 °F - ()
Min Temperature 46 °F 53 °F - ()
Degree Days  
Heating Degree Days 10    
Growing Degree Days 4 (Base 50)    
Moisture  
Dew Point 47 °F    
Average Humidity 75    
Maximum Humidity 94    
Minimum Humidity 42    
Precipitation  
Precipitation 0.00 in 0.07 in - ()
Sea Level Pressure  
Sea Level Pressure 29.81 in    
Wind  
Wind Speed 8 mph ()    
Max Wind Speed 17 mph    
Max Gust Speed -    
Visibility 7.4 miles    
Events Rain    
T = Trace of Precipitation, MM = Missing Value Source: Averaged Metar Reports

Daily Weather History Graph

Daily Weather History Graph

Search for Another Location

Airport or City:

Astronomy

Jun. 28, 2007 Rise Set
Actual Time 4:52 AM BST 9:29 PM BST
Civil Twilight 4:05 AM BST 10:16 PM BST
Nautical Twilight 2:51 AM BST 11:29 PM BST
Astronomical Twilight 1:43 AM BST 12:38 AM BST
Moon 8:23 PM BST (6/28) 2:24 AM BST (6/28)
Length of Visible Light 18h 11m
Length of Day
16h 36m
Waxing Gibbous, 95% of the Moon is Illuminated
Jun 28
Waxing Gibbous
Jun 30
Full
Jul 7
Last Quarter
Jul 14
New
Jul 22
First Quarter

Hourly Weather History & Observations

Time (BST) Temp. Windchill Dew Point Humidity Pressure Visibility Wind Dir Wind Speed Gust Speed Precip Events Conditions
12:50 AM 47 °F - 42 °F 76% 29.81 in 19 mi West 8.1 mph - -   Partly Cloudy
12:50 AM 46.4 °F 42.4 °F 41.0 °F 81% 29.80 in - West 8.1 mph - N/A   Clear
1:50 AM 46.4 °F 43.5 °F 42.8 °F 87% 29.80 in - SSW 5.8 mph - N/A   Clear
2:50 AM 46.4 °F 43.5 °F 42.8 °F 87% 29.80 in - SSW 5.8 mph - N/A   Clear
3:50 AM 47 °F - 44 °F 84% 29.82 in 19 mi SSW 6.9 mph - -   Mostly Cloudy
3:50 AM 46.4 °F 42.9 °F 44.6 °F 93% 29.80 in - SSW 6.9 mph - N/A   Clear
4:50 AM 48.2 °F - 44.6 °F 87% 29.80 in 6.2 mi South 5.8 mph - N/A   Mostly Cloudy
5:50 AM 48.2 °F - 44.6 °F 87% 29.80 in 6.2 mi SSW 6.9 mph - N/A   Scattered Clouds
6:50 AM 51 °F - 48 °F 86% 29.83 in 22 mi SSW 4.6 mph - -   Scattered Clouds
6:50 AM 50.0 °F - 48.2 °F 94% 29.83 in 6.2 mi SSW 4.6 mph - N/A   Mostly Cloudy
7:50 AM 53.6 °F - 48.2 °F 82% 29.83 in 6.2 mi SSW 9.2 mph - N/A   Mostly Cloudy
8:50 AM 55.4 °F - 50.0 °F 82% 29.83 in 6.2 mi SSW 10.4 mph - N/A   Mostly Cloudy
9:50 AM 57 °F - 50 °F 70% 29.84 in 25 mi SW 8.1 mph - -   Mostly Cloudy
9:50 AM 57.2 °F - 50.0 °F 77% 29.83 in 6.2 mi SW 8.1 mph - N/A   Mostly Cloudy
10:50 AM 57.2 °F - 46.4 °F 67% 29.83 in 6.2 mi SW 11.5 mph - N/A   Mostly Cloudy
11:50 AM 59.0 °F - 50.0 °F 72% 29.83 in 6.2 mi WSW 11.5 mph - N/A   Mostly Cloudy
12:50 PM 60 °F - 47 °F 51% 29.85 in 31 mi WSW 11.5 mph - - Rain Light Rain Showers
12:50 PM 60.8 °F - 46.4 °F 59% 29.83 in 6.2 mi WSW 11.5 mph - N/A   Mostly Cloudy
1:50 PM 60.8 °F - 44.6 °F 55% 29.83 in 6.2 mi WSW 16.1 mph - N/A   Scattered Clouds
2:50 PM 60.8 °F - 44.6 °F 55% 29.83 in 6.2 mi WSW 17.3 mph - N/A   Mostly Cloudy
3:50 PM 61 °F - 44 °F 42% 29.83 in 31 mi WSW 15.0 mph - -   Partly Cloudy
3:50 PM 60.8 °F - 44.6 °F 55% 29.83 in 6.2 mi WSW 15.0 mph - N/A   Mostly Cloudy
4:50 PM 60.8 °F - 46.4 °F 59% 29.80 in 6.2 mi WSW 13.8 mph - N/A   Mostly Cloudy
5:50 PM 59.0 °F - 48.2 °F 67% 29.80 in 6.2 mi SW 13.8 mph - N/A   Mostly Cloudy
6:50 PM 58 °F - 50 °F 66% 29.81 in 22 mi SSW 12.7 mph - -   Overcast
6:50 PM 59.0 °F - 50.0 °F 72% 29.80 in 6.2 mi SSW 12.7 mph - N/A   Mostly Cloudy
7:50 PM 57.2 °F - 50.0 °F 77% 29.80 in 6.2 mi SSW 10.4 mph - N/A   Overcast
8:50 PM 57.2 °F - 50.0 °F 77% 29.77 in 6.2 mi SSW 13.8 mph - N/A   Overcast
9:50 PM 55.4 °F - 51.8 °F 88% 29.80 in 6.2 mi SW 17.3 mph - N/A Rain Light Rain
10:50 PM 55.4 °F - 51.8 °F 88% 29.77 in 6.2 mi SSW 11.5 mph - N/A   Overcast
11:50 PM 55.4 °F - 51.8 °F 88% 29.77 in 6.2 mi SSW 12.7 mph - N/A   Overcast